Location: Unspecified
(45.7810°N, 0.0000°E)
Time: 22:15:42
(UTC+00:00)

ISS - Pass Details

Date: 27 July 2019
Orbit: 410 x 421 km, 51.6° (Epoch: 24 August)

Event Time Altitude Azimuth Distance (km) Brightness Sun altitude
Rises 23:02:49 0° 296° (WNW) 2,371 0.7 -23.5°
Reaches altitude 10° 23:04:57 10° 292° (WNW) 1,501 -0.5 -23.6°
Enters shadow 23:06:22 22° 284° (WNW) 960 -1.7 -23.7°
